TimePDT,TemperatureF,Dew PointF,Humidity,Sea Level PressureIn,VisibilityMPH,Wind Direction,Wind SpeedMPH,Gust SpeedMPH,PrecipitationIn,Events,Conditions,WindDirDegrees,DateUTC
12:53 AM,60.1,50.0,69,30.00,10.0,Calm,Calm,-,N/A,,Clear,0,2013-07-01 07:53:00
1:53 AM,61.0,50.0,67,29.99,10.0,Calm,Calm,-,N/A,,Partly Cloudy,0,2013-07-01 08:53:00
2:53 AM,61.0,48.9,64,29.98,10.0,Calm,Calm,-,N/A,,Clear,0,2013-07-01 09:53:00
3:53 AM,60.1,48.9,67,29.99,10.0,Calm,Calm,-,N/A,,Clear,0,2013-07-01 10:53:00
4:53 AM,59.0,48.0,67,29.99,10.0,Calm,Calm,-,N/A,,Clear,0,2013-07-01 11:53:00
5:53 AM,57.9,48.0,70,30.03,10.0,Calm,Calm,-,N/A,,Clear,0,2013-07-01 12:53:00
6:53 AM,59.0,48.0,67,30.04,10.0,Calm,Calm,-,N/A,,Clear,0,2013-07-01 13:53:00
7:53 AM,60.1,48.9,67,30.06,10.0,Calm,Calm,-,N/A,,Clear,0,2013-07-01 14:53:00
8:53 AM,68.0,48.9,50,30.05,10.0,Calm,Calm,-,N/A,,Clear,0,2013-07-01 15:53:00
9:53 AM,77.0,45.0,32,30.04,10.0,Calm,Calm,-,N/A,,Clear,0,2013-07-01 16:53:00
10:53 AM,81.0,48.9,33,30.03,10.0,NE,6.9,-,N/A,,Clear,40,2013-07-01 17:53:00
11:53 AM,82.9,48.0,29,30.04,10.0,NNE,8.1,-,N/A,,Clear,30,2013-07-01 18:53:00
12:53 PM,86.0,46.0,25,30.04,10.0,NNE,8.1,-,N/A,,Clear,30,2013-07-01 19:53:00
1:53 PM,89.1,35.1,15,30.02,10.0,NNE,10.4,-,N/A,,Clear,30,2013-07-01 20:53:00
2:53 PM,90.0,37.9,16,30.00,10.0,Variable,6.9,-,N/A,,Clear,0,2013-07-01 21:53:00
3:53 PM,91.0,37.0,15,30.00,10.0,NNE,11.5,-,N/A,,Clear,30,2013-07-01 22:53:00
4:08 PM,91.4,37.4,15,30.25,10.0,NNE,10.4,-,N/A,Thunderstorm,Clear,30,2013-07-01 23:08:00
4:48 PM,75.2,44.6,34,30.32,10.0,South,16.1,41.4,N/A,Thunderstorm,Thunderstorm,170,2013-07-01 23:48:00
4:53 PM,73.0,48.0,41,30.14,10.0,South,17.3,34.5,0.00,Rain-Thunderstorm,Light Thunderstorms and Rain,170,2013-07-01 23:53:00
5:17 PM,71.6,53.6,53,30.34,10.0,South,13.8,-,0.01,Rain,Light Rain,170,2013-07-02 00:17:00
5:53 PM,75.9,45.0,33,30.09,10.0,Calm,Calm,-,0.01,Rain,Light Rain,0,2013-07-02 00:53:00
6:53 PM,73.0,50.0,44,30.09,10.0,SSW,5.8,-,0.00,,Clear,200,2013-07-02 01:53:00
7:53 PM,71.1,53.1,53,30.10,10.0,Calm,Calm,-,N/A,,Clear,0,2013-07-02 02:53:00
8:53 PM,68.0,53.1,59,30.09,10.0,South,3.5,-,N/A,,Clear,170,2013-07-02 03:53:00
9:53 PM,66.0,53.1,63,30.09,10.0,South,4.6,-,N/A,,Clear,180,2013-07-02 04:53:00
10:53 PM,64.9,52.0,63,30.10,10.0,Calm,Calm,-,N/A,,Clear,0,2013-07-02 05:53:00
11:53 PM,63.0,52.0,67,30.10,10.0,Calm,Calm,-,N/A,,Clear,0,2013-07-02 06:53:00